TimeEDT,TemperatureF,Dew PointF,Humidity,Sea Level PressureIn,VisibilityMPH,Wind Direction,Wind SpeedMPH,Gust SpeedMPH,PrecipitationIn,Events,Conditions,WindDirDegrees,DateUTC
12:54 AM,68.0,64.9,90,29.99,10.0,NNW,4.6,-,N/A,,Clear,340,2007-07-12 04:54:00
1:54 AM,66.0,63.0,90,29.98,10.0,NW,3.5,-,N/A,,Clear,320,2007-07-12 05:54:00
2:54 AM,66.0,60.1,81,29.98,10.0,Variable,3.5,-,N/A,,Clear,0,2007-07-12 06:54:00
3:54 AM,64.9,60.1,84,29.96,10.0,NNW,9.2,-,N/A,,Clear,340,2007-07-12 07:54:00
4:54 AM,64.0,59.0,84,29.97,10.0,Calm,Calm,-,N/A,,Clear,0,2007-07-12 08:54:00
5:54 AM,64.0,59.0,84,29.98,10.0,North,5.8,-,N/A,,Clear,350,2007-07-12 09:54:00
6:54 AM,63.0,59.0,87,29.98,10.0,North,5.8,-,N/A,,Clear,10,2007-07-12 10:54:00
7:54 AM,66.0,59.0,78,29.99,10.0,NNE,5.8,-,N/A,,Clear,30,2007-07-12 11:54:00
8:54 AM,68.0,59.0,73,30.03,10.0,NNW,6.9,-,N/A,,Clear,340,2007-07-12 12:54:00
9:54 AM,71.1,55.9,59,30.03,10.0,North,8.1,-,N/A,,Partly Cloudy,360,2007-07-12 13:54:00
10:54 AM,73.0,55.0,53,30.04,10.0,Variable,5.8,-,N/A,,Clear,0,2007-07-12 14:54:00
11:54 AM,75.0,55.0,50,30.04,10.0,Variable,3.5,-,N/A,,Clear,0,2007-07-12 15:54:00
12:54 PM,77.0,55.9,48,30.02,10.0,Variable,5.8,-,N/A,,Clear,0,2007-07-12 16:54:00
1:54 PM,79.0,54.0,42,29.99,10.0,North,6.9,-,N/A,,Clear,350,2007-07-12 17:54:00
2:54 PM,82.0,52.0,35,29.98,10.0,North,8.1,-,N/A,,Clear,360,2007-07-12 18:54:00
3:54 PM,82.9,51.1,33,29.96,10.0,North,6.9,-,N/A,,Clear,360,2007-07-12 19:54:00
4:54 PM,82.9,48.9,31,29.96,10.0,North,10.4,-,N/A,,Clear,350,2007-07-12 20:54:00
5:54 PM,81.0,48.9,33,29.96,10.0,NNW,12.7,-,N/A,,Clear,340,2007-07-12 21:54:00
6:54 PM,79.0,48.9,35,29.98,10.0,North,13.8,-,N/A,,Clear,350,2007-07-12 22:54:00
7:54 PM,75.9,50.0,40,29.98,10.0,NNW,9.2,-,N/A,,Scattered Clouds,340,2007-07-12 23:54:00
8:54 PM,73.9,50.0,43,30.00,10.0,North,6.9,-,N/A,,Scattered Clouds,350,2007-07-13 00:54:00
9:54 PM,70.0,51.1,51,30.01,10.0,NNW,8.1,-,N/A,,Clear,330,2007-07-13 01:54:00
10:54 PM,69.1,50.0,51,30.03,10.0,North,5.8,-,N/A,,Clear,350,2007-07-13 02:54:00
11:54 PM,68.0,51.1,55,30.03,10.0,North,4.6,-,N/A,,Clear,10,2007-07-13 03:54:00